GW0481 Weather Reports


time (UTC)temp
C
wind
direction
speed
KPH
gust
KPH
rain 1hr
cm
rain 24hr
cm
rain mn
cm
humidity
%
barometer
mb
20260506211544 21 196 6.4 14.5 0.00 0.13 0.13 74 1006.8
20260506210050 21 271 3.2 12.9 0.00 0.13 0.13 76 1006.7
20260506204550 21 238 6.4 16.1 0.00 0.13 0.13 76 1006.8
20260506203135 21 296 4.8 19.3 0.00 0.13 0.13 75 1006.8
20260506201547 21 229 3.2 14.5 0.00 0.13 0.13 77 1006.5
20260506200049 20 230 4.8 22.5 0.00 0.13 0.13 81 1006.6
20260506194542 19 190 3.2 17.7 0.00 0.13 0.13 82 1006.9
20260506193045 18 184 3.2 12.9 0.00 0.13 0.13 82 1007.2
20260506191552 18 217 1.6 17.7 0.00 0.13 0.13 82 1007.4
20260506190050 18 157 4.8 16.1 0.00 0.13 0.13 83 1007.5
20260506184559 18 315 3.2 14.5 0.00 0.13 0.13 84 1007.4
20260506183057 17 173 3.2 14.5 0.00 0.13 0.13 85 1007.6
20260506181541 17 146 1.6 16.1 0.00 0.13 0.13 85 1007.7
20260506180048 17 164 3.2 11.3 0.00 0.13 0.13 86 1007.9
20260506174550 17 190 4.8 25.7 0.00 0.13 0.13 86 1008.0
20260506173054 17 200 3.2 14.5 0.00 0.13 0.13 87 1008.1
20260506171547 17 208 4.8 17.7 0.03 0.13 0.13 87 1008.1
20260506170052 17 163 4.8 14.5 0.08 0.13 0.13 87 1008.3
20260506164549 17 193 4.8 17.7 0.10 0.13 0.13 86 1008.4
20260506163058 17 151 4.8 16.1 0.13 0.13 0.13 86 1008.5
20260506161549 17 132 1.6 12.9 0.10 0.10 0.10 87 1008.6
20260506160050 17 183 3.2 14.5 0.05 0.05 0.05 85 1009.1
20260506154555 17 182 1.6 11.3 0.03 0.03 0.03 83 1009.5
20260506153050 18 130 1.6 9.7 0.00 0.00 0.00 81 1009.5
20260506151544 18 169 3.2 12.9 0.00 0.00 0.00 78 1009.2
20260506150045 19 186 4.8 16.1 0.00 0.00 0.00 73 1009.3
20260506144551 20 0 3.2 20.9 0.00 0.00 0.00 71 1009.3
20260506143046 20 198 3.2 14.5 0.00 0.00 0.00 72 1009.3
20260506141550 20 176 4.8 20.9 0.00 0.00 0.00 68 1009.5
20260506140050 20 163 4.8 17.7 0.00 0.00 0.00 67 1009.2
20260506134557 20 244 4.8 14.5 0.00 0.00 0.00 70 1009.1
20260506133051 19 161 3.2 17.7 0.00 0.00 0.00 72 1009.1
20260506131547 19 177 6.4 20.9 0.00 0.00 0.00 72 1009.2
20260506130047 18 168 6.4 19.3 0.00 0.00 0.00 73 1009.5
20260506124547 19 172 4.8 14.5 0.00 0.00 0.00 73 1009.6
20260506123052 18 197 1.6 20.9 0.00 0.00 0.00 76 1009.6
20260506121557 18 159 6.4 27.4 0.00 0.00 0.00 76 1009.5
20260506120053 18 160 6.4 16.1 0.00 0.00 0.00 77 1009.3
20260506114545 17 152 3.2 14.5 0.00 0.00 0.00 81 1009.3
20260506113043 17 156 1.6 16.1 0.00 0.00 0.00 81 1009.3
20260506111545 17 184 4.8 12.9 0.00 0.00 0.00 81 1009.3
20260506110056 17 184 3.2 11.3 0.00 0.00 0.00 82 1009.2
20260506104548 17 157 3.2 14.5 0.00 0.00 0.00 83 1009.2
20260506103045 16 169 3.2 14.5 0.00 0.00 0.00 83 1009.2
20260506101542 16 180 4.8 17.7 0.00 0.00 0.00 83 1009.1
20260506100044 16 186 4.8 14.5 0.00 0.00 0.00 82 1009.0
20260506094548 17 202 3.2 14.5 0.00 0.00 0.00 82 1009.2
20260506093046 17 164 3.2 14.5 0.00 0.00 0.00 82 1009.1
20260506091546 17 197 3.2 14.5 0.00 0.00 0.00 81 1009.1
20260506090058 17 170 3.2 12.9 0.00 0.00 0.00 80 1009.2
20260506084556 17 150 1.6 12.9 0.00 0.00 0.00 80 1009.1
20260506083045 17 186 3.2 12.9 0.00 0.00 0.00 80 1009.1
20260506081544 17 153 1.6 14.5 0.00 0.00 0.00 79 1009.2
20260506073047 18 164 1.6 12.9 0.00 0.00 0.00 77 1009.3
20260506071548 18 175 3.2 11.3 0.00 0.00 0.00 76 1009.2
20260506061548 18 160 1.6 11.3 0.00 0.00 0.00 76 1009.5
20260506050112 18 155 0.0 9.7 0.00 0.00 0.00 74 1010.3
20260506044546 18 0 0.0 9.7 0.00 0.00 0.00 74 1010.3
20260506043046 18 148 1.6 11.3 0.00 0.00 0.00 73 1010.2
20260506041558 18 159 3.2 11.3 0.00 0.00 0.00 73 1010.4
20260506040045 18 161 1.6 11.3 0.00 0.00 0.00 72 1010.3
20260506034553 18 163 1.6 8.0 0.00 0.00 0.00 71 1010.2
20260506033050 19 132 0.0 12.9 0.00 0.00 0.00 70 1010.1
20260506031545 19 188 1.6 14.5 0.00 0.00 0.00 69 1010.1
20260506030044 19 164 1.6 9.7 0.00 0.00 0.00 68 1010.3
20260506024545 20 172 3.2 12.9 0.00 0.00 0.00 67 1010.4
20260506023058 20 157 4.8 9.7 0.00 0.00 0.00 65 1010.3
20260506021548 20 200 3.2 11.3 0.00 0.00 0.00 64 1010.1
20260506020052 21 171 1.6 9.7 0.00 0.00 0.00 61 1010.1
20260506014545 21 178 1.6 12.9 0.00 0.00 0.00 60 1010.0
20260506013052 21 188 4.8 12.9 0.00 0.00 0.00 58 1009.8
20260506011549 22 192 1.6 12.9 0.00 0.00 0.00 56 1009.7
20260506010049 22 188 1.6 9.7 0.00 0.00 0.00 55 1009.5
20260506004557 22 208 1.6 17.7 0.00 0.00 0.00 53 1009.3
20260506003044 22 178 3.2 16.1 0.00 0.00 0.00 53 1009.2
20260506001552 22 165 0.0 14.5 0.00 0.00 0.00 51 1009.2
20260506000047 23 167 4.8 16.1 0.00 0.00 0.00 50 1009.0
20260505234550 23 182 4.8 17.7 0.00 0.00 0.00 49 1008.9
20260505233048 23 155 6.4 17.7 0.00 0.00 0.00 49 1008.9
20260505231547 24 183 3.2 14.5 0.00 0.00 0.00 49 1008.8
20260505230110 25 231 3.2 20.9 0.00 0.00 0.00 47 1008.8
20260505224541 25 146 4.8 16.1 0.00 0.00 0.00 46 1008.6
20260505223048 26 193 4.8 22.5 0.00 0.00 0.00 46 1008.6
20260505221554 26 181 4.8 17.7 0.00 0.00 0.00 46 1008.8
20260505220053 27 180 4.8 19.3 0.00 0.00 0.00 41 1008.6
20260505214549 27 150 8.0 30.6 0.00 0.00 0.00 40 1008.2
20260505213052 27 208 4.8 24.1 0.00 0.00 0.00 39 1008.3